Powrót do katalogu

STARLINK-3117

AktywnyŁącznośćVLEO
NORAD 49435·PAYLOAD·🇺🇸 United States

Wystrzelony Nov 13, 2021 z Cape Canaveral Space Force Station

Loading…

Następne Przeloty (najbliższe 24 godziny)

TLE

ŚwieżeSource: CelesTrak SupGP

Epoka: Sep 14, 2026, 21:37 UTC

1 49435C 21104AD  26257.90118056  .00775430  00000+0  27192-1 0  2579
2 49435  53.1612  77.9512 0001386  82.4575 233.0850 15.28517827    13

Śledź STARLINK-3117 w czasie rzeczywistym z AllMySat

Download on the App Store